STARLINK-36549, 67510

Orbit data source: Space-Track

STARLINK-36549, 67510 is a payload satellite owned by SpaceX/Seattle (US) in LEO that was launched on Sun, 18 Jan 2026 UTC via an FALCON 9 launch vehicle from the Air Force Eastern Test Range (AFETR). Payload-class satellites include a variety of spacecraft equipped with specific instruments for various scientific and technological missions. These include communications satellites like Starlink; space stations such as the ISS; scientific satellites like the Hubble; Earth observation satellites from companies like Planet Labs, Umbra, and HawkEye 360; GPS; miniature CubeSats for education and research; and military/defense satellites.

Loading next visibility...
Identifier
67510, 2026-012T
Orbit
LEO
Country
Flag of USUS
Related business
Manufacturer
SpaceX/Seattle
Mission
Operational Commercial Communications
Bus & Motor
STARLINK V2MO, Unknown motor
Mass
575 kg wet, ~530 kg dry
Launch date (UTC)
2026-01-18 (5 months ago)
Launch vehicle
FALCON 9
Launch site
Air Force Eastern Test Range (AFETR)
Object type
Payload
Rocket body
Debris
Shape & HBR
Box + 2 Pan, 17.7 m
Radar Cross Section
36.964 m², Large (>1 m²)

Expand to show TLE details & history
Last TLE update: 17 hours ago

TLE from 17 hours ago
0 STARLINK-36549
1 67510U 26012T   26171.12961085  .00012709  00000-0  47030-3 0  9995
2 67510  43.0011  95.4237 0001391 270.2101  89.8591 15.27598183 23438
Epoch: 2026-06-20T03:06Z
TLE epoch observation values (Epoch: 2026-06-20T03:06:38.377Z)
Latitude
-0.00003°
Longitude
140.4151°
Altitude
482.768 km
Speed
7.626 km/s
True Right ascension
06h 21m 41s
True Declination
0° 00' 00"
Sunlit
Object was in daylight at epoch
Visualization orbit readout
Latitude
Unknown
Longitude
Unknown
Altitude
Unknown
Speed
Unknown
Apparent Right ascension
Unknown
Apparent Declination
Unknown
Sunlit
N/A
Visualization observer readout
Local Sidereal Time
07:24:34
Azimuth
Unknown
Elevation
Unknown
Doppler factor
Unknown
Orbital elements
Apogee altitude
485.894 km
Perigee altitude
483.985 km
Semi-major axis
6,863.077 km
Eccentricity
0.00014
Inclination
43.0011°
RAAN
95.4237°
Arg. of periapsis
270.2101°
True anomaly
89.87504°
Mean anomaly
89.8591°
Eccentric anomaly
89.86707°
Mean motion
3.81738 °/min
Orbital period
94.31 mins
BSTAR
0.0004703
Loading maneuver chart data...
Computing Atmospheric mass density...
Loading historical data...
Loading historical data...
Loading historical data...
Loading historical data...
Loading historical data...
Loading historical data...
Loading historical data...

Documentation

Showing up to 5 results
|